STARLINK-34669

Last updated on Sat Aug 16 2025 00:02:05 GMT+0000 (Coordinated Universal Time)

1 64811U 25150X 25227.58336806 -.00779170 00000+0 -19048-1 0 9995 2 64811 69.9996 315.3128 0003852 268.4539 141.1345 15.43190501 6080
UTC large
Height (km)
Speed (km/s)
/
Latitude / Longitude
Inclination (degrees)
Orbital Period (minutes)
Azimuth
Elevation
Range (km)
Doppler Factor

Next 0 passes for location: London (51.5072 / 0.1276)

Sorry there are no passes over London.